Torna al catalogo

STARLINK-31527

AttivoComunicazioniVLEO
NORAD 59018·PAYLOAD·🇺🇸 United States

Lanciato Feb 23, 2024 da Vandenberg Space Force Base

Loading…

Prossimi Passaggi (prossime 24 ore)

TLE

AggiornatoSource: CelesTrak SupGP

Epoca: Sep 14, 2026, 21:17 UTC

1 59018C 24036W   26257.88729167  .00045048  00000+0  13312-2 0  2577
2 59018  53.1559 277.6161 0001293  87.5619 301.3274 15.34361473    12

Traccia STARLINK-31527 in tempo reale con AllMySat

Download on the App Store